N6EQ Weather Reports


Display with metric or nautical units.
time (UTC)temp
F
wind
direction
speed
MPH
gust
MPH
rain 1hr
in
rain 24hr
in
rain mn
in
humidity
%
barometer
mb
20260505100033 64 207 0.0 7.0 0.00 0.00 0.00 40 948.0
20260505094527 65 200 5.0 9.0 0.00 0.00 0.00 40 948.0
20260505093028 65 205 4.0 12.0 0.00 0.00 0.00 39 948.0
20260505091527 65 141 1.0 6.0 0.00 0.00 0.00 39 948.0
20260505090036 65 146 0.0 7.0 0.00 0.00 0.00 38 948.2
20260505084521 65 223 3.0 7.0 0.00 0.00 0.00 38 948.3
20260505083019 65 243 0.0 1.0 0.00 0.00 0.00 37 948.4
20260505081516 66 263 0.0 6.0 0.00 0.00 0.00 37 948.5
20260505080035 67 231 0.0 1.0 0.00 0.00 0.00 36 948.5
20260505074511 67 197 3.0 8.0 0.00 0.00 0.00 35 948.5
20260505073016 68 176 4.0 8.0 0.00 0.00 0.00 35 948.2
20260505071505 69 171 7.0 17.0 0.00 0.00 0.00 34 948.4
20260505070003 69 129 9.0 17.0 0.00 0.00 0.00 33 948.4
20260505064601 70 143 10.0 18.0 0.00 0.00 0.00 32 948.3
20260505063059 70 164 9.0 18.0 0.00 0.00 0.00 31 948.1
20260505061558 70 163 9.0 17.0 0.00 0.00 0.00 31 948.3
20260505060059 70 153 9.0 15.0 0.00 0.00 0.00 30 948.2
20260505054558 71 138 9.0 19.0 0.00 0.00 0.00 30 948.1
20260505053056 71 132 12.0 17.0 0.00 0.00 0.00 30 948.2
20260505051556 71 136 9.0 15.0 0.00 0.00 0.00 29 948.2
20260505041554 72 193 12.0 20.0 0.00 0.00 0.00 26 947.7
20260505034553 73 153 6.0 18.0 0.00 0.00 0.00 25 947.7
20260505033052 73 147 14.0 20.0 0.00 0.00 0.00 25 947.5
20260505031558 74 124 8.0 18.0 0.00 0.00 0.00 25 947.3
20260505030057 74 150 14.0 23.0 0.00 0.00 0.00 24 947.0
20260505024553 74 171 13.0 21.0 0.00 0.00 0.00 24 946.8
20260505023051 75 143 12.0 21.0 0.00 0.00 0.00 26 946.7
20260505021550 76 147 12.0 20.0 0.00 0.00 0.00 26 946.7
20260505020051 76 163 11.0 21.0 0.00 0.00 0.00 26 946.8
20260505014602 77 149 9.0 16.0 0.00 0.00 0.00 26 946.8
20260505013047 76 182 9.0 21.0 0.00 0.00 0.00 27 946.8
20260505011551 77 155 10.0 19.0 0.00 0.00 0.00 26 946.8
20260505010045 76 169 10.0 16.0 0.00 0.00 0.00 27 946.9
20260505004545 77 170 12.0 17.0 0.00 0.00 0.00 27 947.0
20260505003044 77 201 10.0 16.0 0.00 0.00 0.00 27 947.1
20260505001546 77 10.0 20.0 0.00 0.00 0.00 25 947.3
20260505000047 77 8.0 19.0 0.00 0.00 0.00 26 947.2
20260504234542 77 10.0 18.0 0.00 0.00 0.00 23 947.2
20260504233042 77 10.0 20.0 0.00 0.00 0.00 22 947.3
20260504231541 77 179 9.0 18.0 0.00 0.00 0.00 25 947.5
20260504230046 77 189 8.0 21.0 0.00 0.00 0.00 25 947.6
20260504224546 77 145 10.0 21.0 0.00 0.00 0.00 28 947.7
20260504223039 76 136 13.0 22.0 0.00 0.00 0.00 29 948.0
20260504221539 76 10.0 18.0 0.00 0.00 0.00 28 948.0
20260504220037 76 13.0 22.0 0.00 0.00 0.00 29 948.4
20260504214536 76 14.0 21.0 0.00 0.00 0.00 27 948.5
20260504213035 76 13.0 22.0 0.00 0.00 0.00 28 948.6
20260504211535 76 13.0 20.0 0.00 0.00 0.00 26 948.8
20260504210046 76 11.0 21.0 0.00 0.00 0.00 27 948.9
20260504204551 76 13.0 21.0 0.00 0.00 0.00 28 949.1
20260504203034 76 13.0 22.0 0.00 0.00 0.00 27 949.1
20260504201532 76 15.0 23.0 0.00 0.00 0.00 28 949.1
20260504200031 75 15.0 22.0 0.00 0.00 0.00 28 949.2
20260504194531 75 12.0 23.0 0.00 0.00 0.00 29 949.4
20260504193030 74 165 13.0 23.0 0.00 0.00 0.00 30 949.4
20260504191531 74 178 13.0 21.0 0.00 0.00 0.00 30 949.5
20260504190028 73 182 13.0 24.0 0.00 0.00 0.00 31 949.7
20260504184528 73 221 11.0 21.0 0.00 0.00 0.00 32 949.6
20260504183027 72 186 12.0 23.0 0.00 0.00 0.00 33 949.8
20260504181527 73 200 10.0 23.0 0.00 0.00 0.00 33 950.0
20260504180025 73 197 13.0 22.0 0.00 0.00 0.00 33 949.8
20260504174524 72 10.0 19.0 0.00 0.00 0.00 33 949.9
20260504173023 72 13.0 21.0 0.00 0.00 0.00 33 949.5
20260504171522 72 12.0 21.0 0.00 0.00 0.00 32 949.5